TimePST,TemperatureF,Dew PointF,Humidity,Sea Level PressureIn,VisibilityMPH,Wind Direction,Wind SpeedMPH,Gust SpeedMPH,PrecipitationIn,Events,Conditions,WindDirDegrees,DateUTC
12:53 AM,52.0,43.0,71,30.09,10.0,ESE,6.9,-,N/A,,Overcast,120,2012-03-02 08:53:00
1:20 AM,51.8,42.8,71,30.09,10.0,ESE,6.9,-,N/A,,Scattered Clouds,110,2012-03-02 09:20:00
1:53 AM,52.0,43.0,71,30.09,10.0,SE,6.9,-,N/A,,Partly Cloudy,130,2012-03-02 09:53:00
2:53 AM,50.0,42.1,74,30.09,10.0,East,4.6,-,N/A,,Scattered Clouds,100,2012-03-02 10:53:00
3:53 AM,50.0,41.0,71,30.09,10.0,Calm,Calm,-,N/A,,Clear,0,2012-03-02 11:53:00
4:53 AM,48.0,41.0,77,30.10,10.0,NNE,4.6,-,N/A,,Clear,30,2012-03-02 12:53:00
5:53 AM,48.0,39.9,74,30.11,10.0,Calm,Calm,-,N/A,,Clear,0,2012-03-02 13:53:00
6:53 AM,48.9,41.0,74,30.12,10.0,South,3.5,-,N/A,,Clear,190,2012-03-02 14:53:00
7:53 AM,54.0,41.0,62,30.13,10.0,Calm,Calm,-,N/A,,Clear,0,2012-03-02 15:53:00
8:53 AM,61.0,37.0,41,30.14,10.0,SE,4.6,-,N/A,,Clear,130,2012-03-02 16:53:00
9:53 AM,68.0,26.1,21,30.16,10.0,East,11.5,17.3,N/A,,Clear,90,2012-03-02 17:53:00
10:53 AM,71.1,15.1,12,30.17,10.0,NE,9.2,19.6,N/A,,Clear,50,2012-03-02 18:53:00
11:53 AM,66.9,43.0,42,30.16,10.0,WSW,4.6,-,N/A,,Clear,240,2012-03-02 19:53:00
12:53 PM,73.9,7.0,8,30.15,10.0,Variable,6.9,25.3,N/A,,Clear,0,2012-03-02 20:53:00
1:53 PM,75.0,-9.9,4,30.14,10.0,NNE,19.6,29.9,N/A,,Clear,30,2012-03-02 21:53:00
2:53 PM,75.0,-9.9,4,30.13,10.0,NE,20.7,28.8,N/A,,Clear,40,2012-03-02 22:53:00
3:53 PM,75.0,-13.0,4,30.12,10.0,NNE,15.0,24.2,N/A,,Clear,30,2012-03-02 23:53:00
4:53 PM,73.0,-11.9,4,30.12,10.0,NNE,15.0,24.2,N/A,,Clear,30,2012-03-03 00:53:00
5:53 PM,70.0,-9.9,4,30.14,10.0,ENE,8.1,21.9,N/A,,Clear,70,2012-03-03 01:53:00
6:53 PM,68.0,-11.9,4,30.16,10.0,ENE,8.1,-,N/A,,Clear,60,2012-03-03 02:53:00
7:53 PM,66.9,-9.9,4,30.19,10.0,ENE,8.1,-,N/A,,Clear,70,2012-03-03 03:53:00
8:53 PM,66.0,-9.0,5,30.21,10.0,ENE,5.8,-,N/A,,Clear,60,2012-03-03 04:53:00
9:53 PM,66.0,-8.0,5,30.22,10.0,East,6.9,-,N/A,,Clear,80,2012-03-03 05:53:00
10:53 PM,61.0,9.0,13,30.25,10.0,WNW,5.8,-,N/A,,Clear,300,2012-03-03 06:53:00
11:53 PM,57.0,28.0,33,30.25,10.0,Calm,Calm,-,N/A,,Clear,0,2012-03-03 07:53:00